Radiation Dose at Monitoring Post of Fukushima Daini Nuclear Power Station
Date,Time,MP-1(microSv/h),MP-2(microSv/h),MP-3(microSv/h),MP-4(microSv/h),MP-5(microSv/h),MP-6(microSv/h),MP-7(microSv/h),Wind Direction,Wind Velocity(m/s),Rain
2015/08/03,00:00,0.517,0.300,0.541,0.493,0.466,0.240,0.213,north-northeast,3.8,No
2015/08/03,00:10,0.518,0.297,0.548,0.500,0.472,0.243,0.213,north-northeast,4.6,No
2015/08/03,00:20,0.514,0.299,0.547,0.500,0.470,0.241,0.212,north,2.2,No
2015/08/03,00:30,0.514,0.299,0.542,0.494,0.466,0.241,0.213,southwest,1.0,No
2015/08/03,00:40,0.520,0.300,0.541,0.494,0.469,0.242,0.213,-,CALM,No
2015/08/03,00:50,0.517,0.297,0.546,0.501,0.472,0.242,0.212,northwest,0.5,No
2015/08/03,01:00,0.512,0.301,0.546,0.496,0.468,0.240,0.211,-,CALM,No
2015/08/03,01:10,0.517,0.300,0.541,0.494,0.465,0.243,0.214,north,0.9,No
2015/08/03,01:20,0.519,0.297,0.548,0.499,0.472,0.242,0.214,north,2.3,No
2015/08/03,01:30,0.514,0.300,0.546,0.500,0.468,0.243,0.211,north,2.1,No
2015/08/03,01:40,0.512,0.300,0.542,0.495,0.465,0.242,0.212,north,2.8,No
2015/08/03,01:50,0.520,0.299,0.542,0.493,0.469,0.243,0.213,north,3.1,No
2015/08/03,02:00,0.518,0.299,0.551,0.502,0.474,0.243,0.213,north,4.1,No
2015/08/03,02:10,0.511,0.302,0.545,0.499,0.467,0.239,0.212,north,4.3,No
2015/08/03,02:20,0.516,0.300,0.540,0.493,0.466,0.243,0.214,north,4.1,No
2015/08/03,02:30,0.519,0.298,0.551,0.497,0.472,0.243,0.212,north,3.6,No
2015/08/03,02:40,0.515,0.301,0.547,0.500,0.469,0.242,0.214,north-northwest,2.8,No
2015/08/03,02:50,0.513,0.301,0.542,0.494,0.468,0.242,0.214,north-northwest,2.4,No
2015/08/03,03:00,0.521,0.298,0.546,0.495,0.473,0.241,0.212,northwest,2.2,No
2015/08/03,03:10,0.517,0.303,0.550,0.500,0.471,0.241,0.213,north-northwest,1.8,No
2015/08/03,03:20,0.511,0.299,0.542,0.496,0.466,0.243,0.213,north,1.7,No
2015/08/03,03:30,0.516,0.298,0.543,0.493,0.472,0.243,0.212,north,0.9,No
2015/08/03,03:40,0.520,0.300,0.550,0.500,0.469,0.243,0.213,north-northeast,2.2,No
2015/08/03,03:50,0.514,0.301,0.546,0.498,0.464,0.242,0.214,north,2.4,No
2015/08/03,04:00,0.512,0.298,0.541,0.492,0.472,0.242,0.213,north,2.6,No
2015/08/03,04:10,0.520,0.298,0.547,0.498,0.474,0.241,0.214,north,3.0,No
2015/08/03,04:20,0.516,0.301,0.546,0.502,0.467,0.243,0.214,north-northwest,2.1,No
2015/08/03,04:30,0.512,0.302,0.542,0.496,0.470,0.242,0.213,north,1.9,No
2015/08/03,04:40,0.517,0.298,0.546,0.495,0.473,0.242,0.213,north,1.8,No
2015/08/03,04:50,0.521,0.301,0.549,0.502,0.468,0.244,0.214,north-northeast,1.7,No
2015/08/03,05:00,0.517,0.301,0.546,0.498,0.466,0.243,0.214,north-northeast,1.2,No
2015/08/03,05:10,0.513,0.298,0.542,0.493,0.474,0.243,0.214,north-northeast,1.1,No
2015/08/03,05:20,0.521,0.300,0.548,0.499,0.471,0.243,0.214,north-northeast,1.6,No
2015/08/03,05:30,0.519,0.302,0.548,0.501,0.466,0.243,0.214,north-northeast,2.2,No
2015/08/03,05:40,0.513,0.299,0.543,0.494,0.474,0.242,0.213,north-northeast,1.0,No
2015/08/03,05:50,0.515,0.300,0.549,0.497,0.474,0.243,0.214,northeast,1.0,No
2015/08/03,06:00,0.518,0.301,0.552,0.502,0.470,0.243,0.214,east-northeast,0.6,No
2015/08/03,06:10,0.515,0.300,0.545,0.498,0.466,0.242,0.213,east-southeast,0.7,No
2015/08/03,06:20,0.511,0.298,0.542,0.493,0.474,0.242,0.212,south-southwest,1.9,No
2015/08/03,06:30,0.520,0.302,0.551,0.500,0.470,0.244,0.211,south-southwest,2.7,No
2015/08/03,06:40,0.518,0.301,0.548,0.501,0.469,0.242,0.211,south-southwest,2.7,No
2015/08/03,06:50,0.514,0.300,0.542,0.496,0.465,0.241,0.212,south-southwest,3.4,No
2015/08/03,07:00,0.513,0.297,0.543,0.493,0.472,0.243,0.211,south,3.7,No
2015/08/03,07:10,0.521,0.297,0.550,0.491,0.471,0.243,0.212,south-southwest,3.8,No
2015/08/03,07:20,0.520,0.298,0.546,0.492,0.469,0.242,0.211,south,3.1,No
2015/08/03,07:30,0.517,0.298,0.543,0.500,0.466,0.242,0.212,south,2.7,No
2015/08/03,07:40,0.511,0.298,0.542,0.496,0.464,0.241,0.213,south,3.0,No
2015/08/03,07:50,0.512,0.298,0.540,0.496,0.469,0.243,0.213,south,3.5,No
2015/08/03,08:00,0.520,0.298,0.541,0.494,0.472,0.244,0.212,south,3.7,No
2015/08/03,08:10,0.520,0.301,0.540,0.493,0.472,0.243,0.213,south,3.6,No
2015/08/03,08:20,0.518,0.300,0.540,0.496,0.469,0.242,0.213,south,4.4,No
2015/08/03,08:30,0.513,0.298,0.541,0.494,0.466,0.242,0.212,south,4.6,No
2015/08/03,08:40,0.512,0.299,0.549,0.495,0.468,0.241,0.212,south,4.2,No
2015/08/03,08:50,0.513,0.299,0.548,0.497,0.466,0.242,0.213,south,3.6,No
2015/08/03,09:00,0.511,0.298,0.545,0.496,0.466,0.242,0.214,south,4.6,No
2015/08/03,09:10,0.512,0.299,0.543,0.497,0.467,0.243,0.213,south,5.0,No
2015/08/03,09:20,0.511,0.299,0.539,0.497,0.466,0.241,0.212,south,4.8,No
2015/08/03,09:30,0.511,0.300,0.541,0.497,0.468,0.240,0.213,south,5.0,No
2015/08/03,09:40,0.515,0.298,0.548,0.496,0.468,0.243,0.213,south,4.2,No
2015/08/03,09:50,0.520,0.298,0.547,0.496,0.469,0.241,0.212,south,4.4,No
2015/08/03,10:00,0.519,0.298,0.545,0.497,0.467,0.241,0.212,south-southeast,3.8,No
2015/08/03,10:10,0.517,0.298,0.543,0.497,0.468,0.241,0.212,south-southeast,4.5,No
2015/08/03,10:20,0.514,0.297,0.542,0.497,0.468,0.242,0.212,south-southeast,5.0,No
2015/08/03,10:30,0.515,0.298,0.542,0.496,0.468,0.241,0.213,south-southeast,3.9,No
2015/08/03,10:40,0.515,0.299,0.543,0.495,0.470,0.243,0.214,south,4.9,No
2015/08/03,10:50,0.515,0.300,0.540,0.498,0.471,0.242,0.213,south,5.0,No
2015/08/03,11:00,0.515,0.300,0.544,0.498,0.470,0.243,0.213,south,4.4,No
2015/08/03,11:10,0.516,0.298,0.543,0.497,0.470,0.243,0.212,south-southeast,3.5,No
2015/08/03,11:20,0.513,0.300,0.544,0.498,0.470,0.242,0.212,south-southeast,3.3,No
2015/08/03,11:30,0.515,0.299,0.544,0.498,0.471,0.243,0.213,south-southeast,3.8,No
2015/08/03,11:40,0.515,0.299,0.546,0.499,0.470,0.243,0.214,south,3.9,No
2015/08/03,11:50,0.514,0.300,0.546,0.499,0.470,0.243,0.212,south,3.0,No
2015/08/03,12:00,0.513,0.300,0.545,0.499,0.470,0.244,0.213,south,2.7,No
2015/08/03,12:10,0.513,0.300,0.545,0.499,0.471,0.242,0.214,south-southeast,2.8,No
2015/08/03,12:20,0.512,0.300,0.547,0.501,0.469,0.243,0.214,south-southeast,2.9,No
2015/08/03,12:30,0.515,0.299,0.548,0.500,0.471,0.243,0.214,southeast,2.3,No
2015/08/03,12:40,0.515,0.300,0.548,0.499,0.470,0.242,0.214,southeast,2.8,No
2015/08/03,12:50,0.515,0.298,0.548,0.499,0.471,0.243,0.213,east-southeast,2.8,No
2015/08/03,13:00,0.516,0.299,0.548,0.498,0.471,0.241,0.213,southeast,2.5,No
2015/08/03,13:10,0.515,0.298,0.549,0.498,0.471,0.242,0.213,south-southeast,2.7,No
2015/08/03,13:20,0.515,0.300,0.549,0.497,0.471,0.241,0.213,south-southeast,2.5,No
2015/08/03,13:30,0.515,0.300,0.548,0.498,0.472,0.241,0.214,south,2.8,No
2015/08/03,13:40,0.516,0.300,0.549,0.498,0.470,0.242,0.214,south-southeast,2.3,No
2015/08/03,13:50,0.517,0.300,0.545,0.497,0.472,0.242,0.213,south-southeast,2.5,No
2015/08/03,14:00,0.515,0.300,0.545,0.498,0.470,0.241,0.213,south-southeast,2.2,No
2015/08/03,14:10,0.515,0.302,0.546,0.499,0.468,0.242,0.214,south-southeast,3.2,No
2015/08/03,14:20,0.517,0.301,0.547,0.497,0.470,0.243,0.213,south-southeast,3.6,No
2015/08/03,14:30,0.514,0.302,0.545,0.497,0.467,0.242,0.213,south,3.6,No
2015/08/03,14:40,0.517,0.300,0.546,0.498,0.465,0.242,0.212,south,4.4,No
2015/08/03,14:50,0.516,0.300,0.544,0.497,0.465,0.242,0.212,south,4.0,No
2015/08/03,15:00,0.519,0.300,0.543,0.497,0.465,0.242,0.213,south,4.6,No
2015/08/03,15:10,0.517,0.299,0.543,0.497,0.466,0.241,0.213,south,4.9,No
2015/08/03,15:20,0.514,0.298,0.543,0.494,0.466,0.242,0.213,south,5.0,No
2015/08/03,15:30,0.515,0.298,0.541,0.494,0.465,0.241,0.212,south,4.6,No
2015/08/03,15:40,0.512,0.298,0.542,0.495,0.463,0.242,0.212,south,4.5,No
2015/08/03,15:50,0.512,0.299,0.540,0.493,0.467,0.241,0.212,south,3.9,No
2015/08/03,16:00,0.512,0.297,0.540,0.493,0.466,0.241,0.211,south,4.7,No
2015/08/03,16:10,0.514,0.298,0.540,0.495,0.466,0.243,0.211,south,4.1,No
2015/08/03,16:20,0.517,0.297,0.540,0.493,0.466,0.241,0.211,south,5.4,No
2015/08/03,16:30,0.520,0.296,0.541,0.492,0.467,0.241,0.211,south,5.5,No
2015/08/03,16:40,0.520,0.297,0.541,0.493,0.466,0.242,0.213,south,5.3,No
2015/08/03,16:50,0.518,0.299,0.541,0.493,0.465,0.240,0.212,south-southwest,5.3,No
2015/08/03,17:00,0.516,0.296,0.541,0.493,0.466,0.241,0.213,south-southwest,4.4,No
2015/08/03,17:10,0.513,0.297,0.539,0.502,0.466,0.241,0.212,south-southwest,3.8,No
2015/08/03,17:20,0.514,0.296,0.541,0.499,0.465,0.241,0.211,south,4.1,No
2015/08/03,17:30,0.513,0.301,0.549,0.498,0.465,0.242,0.213,south,4.4,No
2015/08/03,17:40,0.513,0.300,0.549,0.495,0.465,0.242,0.214,south-southwest,3.2,No
2015/08/03,17:50,0.519,0.301,0.546,0.494,0.466,0.243,0.213,south-southwest,2.8,No
2015/08/03,18:00,0.520,0.299,0.545,0.493,0.464,0.241,0.211,south,2.7,No
2015/08/03,18:10,0.518,0.299,0.543,0.495,0.464,0.241,0.211,south,2.8,No
2015/08/03,18:20,0.514,0.296,0.542,0.502,0.464,0.241,0.214,south,3.6,No
2015/08/03,18:30,0.514,0.301,0.545,0.499,0.465,0.242,0.214,south-southwest,3.6,No
2015/08/03,18:40,0.517,0.301,0.549,0.496,0.465,0.242,0.212,south-southwest,3.8,No
2015/08/03,18:50,0.524,0.300,0.546,0.493,0.462,0.244,0.211,south-southwest,3.4,No
2015/08/03,19:00,0.519,0.297,0.543,0.495,0.463,0.243,0.213,south-southwest,4.2,No
2015/08/03,19:10,0.514,0.299,0.542,0.501,0.467,0.241,0.214,south-southwest,3.9,No
2015/08/03,19:20,0.512,0.303,0.543,0.500,0.473,0.243,0.212,south-southwest,4.2,No
2015/08/03,19:30,0.521,0.301,0.547,0.498,0.468,0.243,0.211,south-southwest,2.5,No
2015/08/03,19:40,0.521,0.298,0.548,0.493,0.468,0.243,0.213,south-southwest,1.9,No
2015/08/03,19:50,0.515,0.299,0.545,0.500,0.465,0.241,0.214,south-southwest,2.3,No
2015/08/03,20:00,0.513,0.302,0.543,0.502,0.470,0.243,0.213,southwest,1.7,No
2015/08/03,20:10,0.520,0.302,0.546,0.498,0.473,0.243,0.213,southwest,1.9,No
2015/08/03,20:20,0.523,0.300,0.551,0.495,0.470,0.241,0.214,southwest,1.9,No
2015/08/03,20:30,0.518,0.299,0.546,0.495,0.467,0.242,0.214,west-southwest,1.1,No
2015/08/03,20:40,0.514,0.301,0.544,0.504,0.464,0.244,0.212,west-southwest,1.0,No
2015/08/03,20:50,0.515,0.300,0.542,0.501,0.473,0.243,0.213,west-southwest,2.0,No
2015/08/03,21:00,0.521,0.298,0.549,0.497,0.471,0.241,0.215,west-southwest,3.6,No
2015/08/03,21:10,0.518,0.299,0.550,0.494,0.470,0.242,0.213,west-southwest,2.5,No
2015/08/03,21:20,0.516,0.302,0.546,0.495,0.467,0.243,0.212,west,1.3,No
2015/08/03,21:30,0.512,0.301,0.543,0.502,0.466,0.243,0.214,west,1.0,No
2015/08/03,21:40,0.520,0.299,0.545,0.501,0.473,0.242,0.214,north-northwest,0.7,No
2015/08/03,21:50,0.520,0.299,0.551,0.497,0.473,0.244,0.213,north-northwest,0.9,No
2015/08/03,22:00,0.516,0.301,0.549,0.495,0.470,0.244,0.212,northwest,0.7,No
2015/08/03,22:10,0.514,0.301,0.544,0.500,0.466,0.243,0.215,north,1.1,No
2015/08/03,22:20,0.519,0.299,0.543,0.505,0.466,0.242,0.216,north-northwest,0.9,No
2015/08/03,22:30,0.521,0.299,0.550,0.499,0.474,0.245,0.213,north,0.6,No
2015/08/03,22:40,0.519,0.301,0.549,0.495,0.470,0.243,0.214,northeast,0.9,No
2015/08/03,22:50,0.513,0.302,0.548,0.495,0.469,0.242,0.215,northeast,1.0,No
2015/08/03,23:00,0.517,0.300,0.543,0.504,0.466,0.243,0.214,northeast,0.7,No
2015/08/03,23:10,0.520,0.300,0.548,0.502,0.472,0.244,0.213,-,CALM,No
2015/08/03,23:20,0.518,0.302,0.549,0.496,0.473,0.244,0.214,-,CALM,No
2015/08/03,23:30,0.513,0.303,0.546,0.494,0.469,0.241,0.214,-,CALM,No
2015/08/03,23:40,0.520,0.299,0.543,0.504,0.465,0.243,0.214,-,CALM,No
2015/08/03,23:50,0.523,0.302,0.548,0.502,0.475,0.244,0.214,north-northeast,1.8,No
